DELTA 1 DEB, 10717

Orbit data source: Space-Track

DELTA 1 DEB, 10717 is space debris in SSO originally from a launch on Thu, 29 Jul 1976 UTC launched from the Air Force Western Test Range (AFWTR). Debris objects in space refer to the collection of defunct objects orbiting the Earth. Examples of debris include non-operational satellites, rocket bodies, and fragments generated from explosions, collisions, or faulty payload assembly.

Loading next visibility...
Identifier
10717, 1976-077AN
Orbit
SSO
Country
Flag of USUS
Related business
Manufacturer
Unknown
Mission
Spacecraft
Bus & Motor
Unknown
Mass
Unknown
Launch date (UTC)
1976-07-29 (49 years ago)
Launch vehicle
Unknown
Launch site
Air Force Western Test Range (AFWTR)
Object type
Payload
Rocket body
Debris
Shape & HBR
Unknown
Radar Cross Section
Small (<0.1 m²)

Expand to show TLE details & history
Last TLE update: 1 day ago

TLE from 1 day ago
0 DELTA 1 DEB
1 10717U 76077AN  25241.74809331 -.00000010  00000-0  32308-3 0  9993
2 10717 102.6115 220.7884 0100356  90.6108  81.7914 12.23314223192098
Epoch: 2025-08-29T17:57Z
TLE epoch observation values (Epoch: 2025-08-29T17:57:15.261Z)
Latitude
6.23329°
Longitude
154.67601°
Altitude
1,569.436 km
Speed
7.088 km/s
True Right ascension
02h 48m 43s
True Declination
6° 12' 00"
Sunlit
Object was in daylight at epoch
Visualization orbit readout
Latitude
Unknown
Longitude
Unknown
Altitude
Unknown
Speed
Unknown
Apparent Right ascension
Unknown
Apparent Declination
Unknown
Sunlit
N/A
Visualization observer readout
Local Sidereal Time
16:42:13
Azimuth
Unknown
Elevation
Unknown
Doppler factor
Unknown
Orbital elements
Apogee altitude
1,655.594 km
Perigee altitude
1,495.95 km
Semi-major axis
7,953.909 km
Eccentricity
0.01004
Inclination
102.6115°
RAAN
220.7884°
Arg. of periapsis
90.6108°
True anomaly
82.93158°
Mean anomaly
81.7914°
Eccentric anomaly
82.36129°
Mean motion
3.05965 °/min
Orbital period
117.66 mins
BSTAR
0.00032308
Loading maneuver chart data...
Computing Atmospheric mass density...
Loading historical data...
Loading historical data...
Loading historical data...
Loading historical data...
Loading historical data...
Loading historical data...
Loading historical data...

Documentation

Showing up to 5 results
|